Location: Krakow
(50.0830°N, 19.9170°E)
Time: 18:23:51
(UTC+01:00)

SR - Pass Details

Date: 10 February 2023
Orbit: 582 x 867 km, 66.7° (Epoch: 20 March)

Event Time Altitude Azimuth Distance (km) Brightness Sun altitude
Rises 20:03:33 0° 325° (NW) 2,875 ? -31.4°
Reaches altitude 10° 20:05:56 10° 332° (NNW) 1,943 ? -31.7°
Enters shadow 20:06:57 16° 338° (NNW) 1,564 ? -31.9°
Maximum altitude 20:10:04 44° 45° (NE) 818 - -32.4°
Drops below altitude 10° 20:14:08 10° 119° (ESE) 1,902 - -33.0°
Sets 20:16:27 0° 126° (SE) 2,806 - -33.3°
